Drummond Island, MI

7:58 AM EST on February 19, 2017 (GMT -0500)
Drummond Island

Weather History for KDRM - March, 2013

Change the Weather History Date:

Wednesday, March 13, 2013

  Actual Average (KCIU) Record (KCIU)
Temperature  
Mean Temperature 18 °F -  
Max Temperature 23 °F 33 °F 50 °F (1990)
Min Temperature 14 °F 9 °F -11 °F (1992)
Degree Days  
Heating Degree Days 46    
Moisture  
Dew Point 14 °F    
Average Humidity 79    
Maximum Humidity 98    
Minimum Humidity 59    
Precipitation  
Precipitation 0.00 in - - ()
Sea Level Pressure  
Sea Level Pressure 29.92 in    
Wind  
Wind Speed 5 mph (NW)    
Max Wind Speed 15 mph    
Max Gust Speed 26 mph    
Visibility 9 miles    
Events Snow    
Averages and records for this station are not official NWS values.
T = Trace of Precipitation, MM = Missing Value Source: NWS Daily Summary

Daily Weather History Graph

Daily Weather History Graph

Search for Another Location

Airport or City:

Trip Planner

Search our weather history database for the weather conditions in past years. The results will help you decide how hot, cold, wet, or windy it might be!

Date:

Astronomy

Mar. 13, 2013 Rise Set
Actual Time 7:50 AM EDT 7:38 PM EDT
Civil Twilight 7:21 AM EDT 8:08 PM EDT
Nautical Twilight 6:46 AM EDT 8:43 PM EDT
Astronomical Twilight 6:11 AM EDT 9:18 PM EDT
Moon 8:21 AM EDT (3/13) 10:04 PM EDT (3/13)
Length of Visible Light 12h 46m
Length of Day
11h 47m
Waxing Crescent, 4% of the Moon is Illuminated
Mar 13
Waxing Crescent
Mar 19
First Quarter
Mar 27
Full
Apr 3
Last Quarter
Apr 10
New

Hourly Weather History & Observations

Time (EDT) Temp. Windchill Dew Point Humidity Pressure Visibility Wind Dir Wind Speed Gust Speed Precip Events Conditions
12:17 AM 20.8 °F - 18.7 °F 91% 29.79 in 10.0 mi Calm Calm - N/A   Mostly Cloudy
12:36 AM 19.9 °F - 18.5 °F 94% 29.79 in 10.0 mi Calm Calm - N/A   Overcast
12:56 AM 18.7 °F - 18.3 °F 98% 29.80 in 10.0 mi Calm Calm - N/A   Mostly Cloudy
1:17 AM 19.8 °F - 19.2 °F 98% 29.79 in 10.0 mi Calm Calm - N/A   Overcast
1:56 AM 20.1 °F - 18.0 °F 91% 29.79 in 10.0 mi Calm Calm - N/A   Overcast
2:17 AM 19.8 °F - 17.6 °F 91% 29.79 in 10.0 mi Calm Calm - N/A   Overcast
2:36 AM 19.4 °F - 17.6 °F 93% 29.79 in 10.0 mi Calm Calm - N/A   Mostly Cloudy
2:56 AM 19.4 °F - 17.4 °F 92% 29.80 in 10.0 mi Calm Calm - N/A   Mostly Cloudy
3:17 AM 19.4 °F 14.3 °F 17.6 °F 93% 29.80 in 10.0 mi West 3.5 mph - N/A   Scattered Clouds
3:36 AM 19.2 °F - 17.6 °F 93% 29.79 in 10.0 mi Calm Calm - N/A   Mostly Cloudy
3:57 AM 19.4 °F - 17.8 °F 93% 29.79 in 7.0 mi Calm Calm - N/A   Overcast
4:16 AM 19.8 °F - 18.0 °F 93% 29.79 in 10.0 mi Calm Calm - N/A Snow Light Snow
4:57 AM 19.0 °F - 17.2 °F 93% 29.79 in 10.0 mi Calm Calm - N/A Snow Light Snow
5:16 AM 19.2 °F - 17.6 °F 93% 29.79 in 10.0 mi Calm Calm - N/A   Overcast
5:36 AM 19.0 °F 13.9 °F 17.4 °F 93% 29.80 in 10.0 mi NW 3.5 mph - N/A   Overcast
5:57 AM 19.0 °F - 17.4 °F 93% 29.80 in 10.0 mi Calm Calm - N/A Snow Light Snow
6:16 AM 19.4 °F 14.3 °F 17.6 °F 93% 29.80 in 10.0 mi NNW 3.5 mph - N/A Snow Light Snow
6:36 AM 19.2 °F 14.1 °F 17.6 °F 93% 29.81 in 1.2 mi NNW 3.5 mph - N/A Snow Light Snow
6:57 AM 17.1 °F 8.7 °F 15.3 °F 93% 29.83 in 2.0 mi NNW 5.8 mph - N/A Snow Light Snow
7:16 AM 15.8 °F 5.1 °F 13.8 °F 92% 29.84 in 4.0 mi NNW 8.1 mph - N/A Snow Light Snow
7:36 AM 14.9 °F 4.0 °F 12.6 °F 90% 29.85 in 5.0 mi NNW 8.1 mph - N/A Snow Light Snow
7:57 AM 14.4 °F 5.5 °F 11.7 °F 89% 29.85 in 7.0 mi NNW 5.8 mph - N/A Snow Light Snow
8:16 AM 14.4 °F 4.3 °F 11.7 °F 89% 29.86 in 4.0 mi NNW 6.9 mph - N/A   Overcast
8:36 AM 14.4 °F 5.5 °F 11.3 °F 88% 29.87 in 7.0 mi NNW 5.8 mph - N/A   Overcast
8:57 AM 14.0 °F 5.1 °F 11.1 °F 88% 29.87 in 5.0 mi NNW 5.8 mph - N/A   Overcast
9:16 AM 14.5 °F 5.7 °F 10.9 °F 86% 29.88 in 7.0 mi NNW 5.8 mph - N/A   Overcast
9:37 AM 14.9 °F 5.0 °F 10.4 °F 82% 29.88 in 10.0 mi NNW 6.9 mph - N/A   Mostly Cloudy
9:56 AM 14.9 °F 3.1 °F 10.4 °F 82% 29.89 in 10.0 mi NW 9.2 mph - N/A   Mostly Cloudy
10:16 AM 15.4 °F 9.8 °F 10.9 °F 82% 29.89 in 5.0 mi NW 3.5 mph - N/A   Overcast
10:37 AM 16.5 °F 6.0 °F 11.8 °F 82% 29.89 in 10.0 mi NW 8.1 mph - N/A   Mostly Cloudy
10:56 AM 16.5 °F 5.1 °F 11.1 °F 79% 29.90 in 10.0 mi NW 9.2 mph - N/A   Overcast
11:16 AM 17.2 °F 8.9 °F 11.3 °F 78% 29.90 in 10.0 mi NW 5.8 mph - N/A   Overcast
11:37 AM 18.0 °F 8.7 °F 11.8 °F 77% 29.91 in 10.0 mi WNW 6.9 mph - N/A   Mostly Cloudy
11:56 AM 17.6 °F 5.7 °F 10.9 °F 75% 29.91 in 10.0 mi NW 10.4 mph 17.3 mph N/A   Mostly Cloudy
12:16 PM 18.1 °F 10.0 °F 11.1 °F 74% 29.92 in 10.0 mi WNW 5.8 mph - N/A   Mostly Cloudy
12:37 PM 18.3 °F 6.6 °F 10.4 °F 71% 29.93 in 7.0 mi NW 10.4 mph 19.6 mph N/A   Overcast
12:56 PM 19.9 °F 8.6 °F 11.7 °F 70% 29.93 in 10.0 mi NW 10.4 mph 21.9 mph N/A   Overcast
1:17 PM 19.4 °F 8.6 °F 9.9 °F 66% 29.93 in 7.0 mi NW 9.2 mph 20.7 mph N/A   Overcast
1:36 PM 20.3 °F 7.7 °F 10.8 °F 67% 29.94 in 10.0 mi NW 12.7 mph 21.9 mph N/A   Overcast
1:56 PM 21.0 °F 8.6 °F 10.2 °F 63% 29.94 in 10.0 mi NW 12.7 mph 21.9 mph N/A   Overcast
2:17 PM 22.3 °F 12.2 °F 10.9 °F 62% 29.95 in 10.0 mi NW 9.2 mph 20.7 mph N/A   Overcast
2:36 PM 21.9 °F 9.8 °F 10.9 °F 63% 29.95 in 10.0 mi NW 12.7 mph 25.3 mph N/A   Overcast
2:57 PM 22.1 °F 8.9 °F 11.1 °F 63% 29.95 in 7.0 mi NW 15.0 mph 26.5 mph N/A   Overcast
3:16 PM 22.5 °F 11.1 °F 11.1 °F 62% 29.95 in 10.0 mi NW 11.5 mph 24.2 mph N/A   Scattered Clouds
3:37 PM 22.8 °F 9.9 °F 10.4 °F 59% 29.95 in 5.0 mi NW 15.0 mph 24.2 mph N/A   Haze
3:57 PM 23.0 °F 13.9 °F 10.6 °F 59% 29.96 in 10.0 mi NW 8.1 mph 21.9 mph N/A   Clear
4:16 PM 22.6 °F 11.9 °F 11.7 °F 63% 29.97 in 10.0 mi WNW 10.4 mph 24.2 mph N/A   Clear
4:37 PM 22.8 °F 11.5 °F 12.9 °F 66% 29.97 in 10.0 mi NW 11.5 mph 23.0 mph N/A   Clear
4:56 PM 21.9 °F 8.7 °F 11.1 °F 63% 29.98 in 10.0 mi NW 15.0 mph 21.9 mph N/A   Clear
5:16 PM 22.5 °F 11.7 °F 11.8 °F 64% 29.98 in 10.0 mi WNW 10.4 mph 21.9 mph N/A   Clear
5:37 PM 23.0 °F 11.7 °F 12.2 °F 63% 29.99 in 10.0 mi NW 11.5 mph 20.7 mph N/A   Clear
5:56 PM 23.5 °F 13.7 °F 12.9 °F 64% 30.00 in 10.0 mi NW 9.2 mph 19.6 mph N/A   Clear
6:16 PM 23.9 °F 12.9 °F 14.0 °F 66% 30.00 in 10.0 mi NW 11.5 mph 20.7 mph N/A   Clear
6:37 PM 23.5 °F 11.8 °F 14.7 °F 69% 30.01 in 10.0 mi WNW 12.7 mph 24.2 mph N/A   Clear
6:56 PM 23.5 °F 11.8 °F 14.5 °F 69% 30.02 in 10.0 mi WNW 12.7 mph 21.9 mph N/A   Clear
7:16 PM 23.0 °F 11.7 °F 14.9 °F 71% 30.03 in 10.0 mi WNW 11.5 mph 17.3 mph N/A   Clear
7:37 PM 22.8 °F 12.2 °F 14.9 °F 72% 30.03 in 10.0 mi NW 10.4 mph 18.4 mph N/A   Clear
7:56 PM 22.5 °F 13.2 °F 14.7 °F 72% 30.04 in 10.0 mi NW 8.1 mph 17.3 mph N/A   Clear
8:17 PM 22.5 °F 12.4 °F 14.4 °F 71% 30.05 in 10.0 mi WNW 9.2 mph 20.7 mph N/A   Clear
8:36 PM 22.5 °F 12.4 °F 14.0 °F 70% 30.06 in 10.0 mi WNW 9.2 mph 19.6 mph N/A   Clear
8:56 PM 22.5 °F 14.1 °F 14.2 °F 71% 30.06 in 10.0 mi NW 6.9 mph 16.1 mph N/A   Clear
9:17 PM 22.1 °F 12.0 °F 14.4 °F 72% 30.07 in 10.0 mi WNW 9.2 mph - N/A   Clear
9:36 PM 21.9 °F 13.4 °F 14.7 °F 74% 30.08 in 10.0 mi WNW 6.9 mph - N/A   Clear
9:57 PM 21.6 °F 15.3 °F 14.5 °F 74% 30.08 in 10.0 mi WNW 4.6 mph - N/A   Clear
10:16 PM 21.2 °F 12.6 °F 14.0 °F 74% 30.08 in 10.0 mi West 6.9 mph - N/A   Clear
10:36 PM 20.8 °F 14.4 °F 14.0 °F 75% 30.09 in 10.0 mi WNW 4.6 mph - N/A   Clear
10:57 PM 20.3 °F 11.5 °F 14.2 °F 77% 30.09 in 10.0 mi WNW 6.9 mph - N/A   Clear
11:16 PM 20.3 °F 10.6 °F 14.2 °F 77% 30.09 in 10.0 mi WNW 8.1 mph - N/A   Clear
11:36 PM 20.1 °F 11.3 °F 14.0 °F 77% 30.10 in 10.0 mi WNW 6.9 mph - N/A   Clear
11:57 PM 19.8 °F 10.8 °F 13.8 °F 78% 30.10 in 10.0 mi WNW 6.9 mph - N/A   Clear